,,,PA_Meas_PMT16A,,PR_Meas_QMR101_102,,RH_Meas_QMH101,,SR_Meas_QMS101,,TA_Meas_QMH101,,GenWind,,GenWind,
date,time,status,PA,status,PR,status,RH,status,SR,status,TA,status,DirAvg,status,SpdAvg,
2009-08-08, 00:00:04,VALID,1005.9,VALID,0,VALID,87.7245,VALID,0,VALID,24.5777,VALID,78,VALID,1.07656,
2009-08-08, 00:01:04,VALID,1005.87,VALID,0,VALID,87.755,VALID,0,VALID,24.638,VALID,99,VALID,0.84375,
2009-08-08, 00:02:04,VALID,1005.86,VALID,0,VALID,87.7016,VALID,0,VALID,24.6361,VALID,43,VALID,0.244531,
2009-08-08, 00:03:04,VALID,1005.87,VALID,0,VALID,87.7092,VALID,0,VALID,24.6593,VALID,72,VALID,0.703906,
2009-08-08, 00:04:04,VALID,1005.84,VALID,0,VALID,87.6024,VALID,0,VALID,24.6574,VALID,64,VALID,1.40703,
2009-08-08, 00:05:04,VALID,1005.82,VALID,0,VALID,87.5414,VALID,0,VALID,24.6964,VALID,66,VALID,0.307422,
2009-08-08, 00:06:04,VALID,1005.83,VALID,0,VALID,87.6329,VALID,0,VALID,24.6964,VALID,83,VALID,0.709766,
2009-08-08, 00:07:04,VALID,1005.82,VALID,0,VALID,87.6024,VALID,0,VALID,24.6964,VALID,114,VALID,0.644531,
2009-08-08, 00:08:04,VALID,1005.83,VALID,0,VALID,87.6482,VALID,0,VALID,24.6945,VALID,61,VALID,0.433984,
2009-08-08, 00:09:04,VALID,1005.82,VALID,0,VALID,87.6253,VALID,0,VALID,24.7159,VALID,81,VALID,0.826563,
2009-08-08, 00:10:04,VALID,1005.79,VALID,0,VALID,87.6406,VALID,0,VALID,24.7353,VALID,79,VALID,0.901172,
2009-08-08, 00:11:04,VALID,1005.82,VALID,0,VALID,87.6329,VALID,0,VALID,24.7548,VALID,98,VALID,1.09375,
2009-08-08, 00:12:04,VALID,1005.8,VALID,0,VALID,87.6177,VALID,0,VALID,24.7937,VALID,89,VALID,1.16953,
2009-08-08, 00:13:04,VALID,1005.78,VALID,0,VALID,87.4193,VALID,0,VALID,24.8716,VALID,100,VALID,1.1418,
2009-08-08, 00:14:04,VALID,1005.76,VALID,0,VALID,87.2134,VALID,0,VALID,24.8911,VALID,95,VALID,1.08945,
2009-08-08, 00:15:04,VALID,1005.72,VALID,0,VALID,87.1981,VALID,0,VALID,24.8892,VALID,104,VALID,0.998047,
2009-08-08, 00:16:04,VALID,1005.74,VALID,0,VALID,87.2362,VALID,0,VALID,24.9106,VALID,105,VALID,0.327734,
2009-08-08, 00:17:04,VALID,1005.72,VALID,0,VALID,87.1523,VALID,0,VALID,24.93,VALID,106,VALID,0.546484,
2009-08-08, 00:18:04,VALID,1005.7,VALID,0,VALID,87.1752,VALID,0,VALID,24.969,VALID,84,VALID,0.748828,
2009-08-08, 00:19:04,VALID,1005.68,VALID,0,VALID,87.1447,VALID,0,VALID,24.9495,VALID,114,VALID,0.719141,
2009-08-08, 00:20:04,VALID,1005.7,VALID,0,VALID,87.1447,VALID,0,VALID,24.9495,VALID,86,VALID,0.830859,
2009-08-08, 00:21:04,VALID,1005.68,VALID,0,VALID,87.2515,VALID,0,VALID,24.93,VALID,113,VALID,0.880078,
2009-08-08, 00:22:04,VALID,1005.65,VALID,0,VALID,87.4117,VALID,0,VALID,24.93,VALID,101,VALID,0.723047,
2009-08-08, 00:23:04,VALID,1005.6,VALID,0,VALID,87.4804,VALID,0,VALID,24.9106,VALID,93,VALID,0.446875,
2009-08-08, 00:24:04,VALID,1005.53,VALID,0,VALID,87.5185,VALID,0,VALID,24.9495,VALID,95,VALID,1.08008,
2009-08-08, 00:25:04,VALID,1005.5,VALID,0,VALID,87.4422,VALID,0,VALID,24.9476,VALID,50,VALID,0.501953,
2009-08-08, 00:26:04,VALID,1005.42,VALID,0,VALID,87.3583,VALID,0,VALID,24.969,VALID,71,VALID,0.177734,
2009-08-08, 00:27:04,VALID,1005.38,VALID,0,VALID,87.3125,VALID,0,VALID,24.969,VALID,94,VALID,0.892969,
2009-08-08, 00:28:04,VALID,1005.35,VALID,0,VALID,87.282,VALID,0,VALID,25.006,VALID,97,VALID,0.737109,
2009-08-08, 00:29:04,VALID,1005.32,VALID,0,VALID,87.2362,VALID,0.100563,VALID,25.006,VALID,97,VALID,0.449609,
2009-08-08, 00:30:04,VALID,1005.32,VALID,0,VALID,87.2057,VALID,0.100563,VALID,25.0255,VALID,97,VALID,0.288672,
2009-08-08, 00:31:04,VALID,1005.27,VALID,0,VALID,87.2439,VALID,0,VALID,25.006,VALID,97,VALID,0.173438,
2009-08-08, 00:32:04,VALID,1005.25,VALID,0,VALID,87.3354,VALID,0.100563,VALID,25.006,VALID,97,VALID,0.263281,
2009-08-08, 00:33:04,VALID,1005.24,VALID,0,VALID,87.3659,VALID,0.100563,VALID,25.0274,VALID,116,VALID,0.588281,
2009-08-08, 00:34:04,VALID,1005.25,VALID,0,VALID,87.4041,VALID,0,VALID,24.9866,VALID,65,VALID,0.246875,
2009-08-08, 00:35:04,VALID,1005.18,VALID,0,VALID,87.4575,VALID,0,VALID,24.9671,VALID,65,VALID,0.326953,
2009-08-08, 00:36:04,VALID,1005.18,VALID,0,VALID,87.5261,VALID,0.100563,VALID,24.9476,VALID,65,VALID,0.417188,
2009-08-08, 00:37:04,VALID,1005.18,VALID,0,VALID,87.7779,VALID,0.100563,VALID,24.9087,VALID,65,VALID,0.200391,
2009-08-08, 00:38:04,VALID,1005.19,VALID,0,VALID,88.0983,VALID,0.100563,VALID,24.8503,VALID,65,VALID,0.304688,
2009-08-08, 00:39:04,VALID,1005.18,VALID,0,VALID,88.4721,VALID,0.100563,VALID,24.7705,VALID,65,VALID,0.494922,
2009-08-08, 00:40:04,VALID,1005.2,VALID,0,VALID,88.8917,VALID,0,VALID,24.6537,VALID,65,VALID,0.36875,
2009-08-08, 00:41:04,VALID,1005.2,VALID,0,VALID,89.3037,VALID,0,VALID,24.5369,VALID,65,VALID,0.224609,
2009-08-08, 00:42:04,VALID,1005.19,VALID,0,VALID,89.6851,VALID,0.100563,VALID,24.5017,VALID,65,VALID,0,
2009-08-08, 00:43:04,VALID,1005.2,VALID,0,VALID,89.9216,VALID,0.100563,VALID,24.422,VALID,66,VALID,0.175,
2009-08-08, 00:44:04,VALID,1005.23,VALID,0,VALID,90.2191,VALID,0.100563,VALID,24.383,VALID,66,VALID,0.405859,
2009-08-08, 00:45:04,VALID,1005.21,VALID,0,VALID,90.448,VALID,0.100563,VALID,24.3441,VALID,86,VALID,0.490234,
2009-08-08, 00:46:04,VALID,1005.23,VALID,0,VALID,90.6387,VALID,0,VALID,24.3228,VALID,67,VALID,0.508203,
2009-08-08, 00:47:04,VALID,1005.2,VALID,0,VALID,90.7226,VALID,0,VALID,24.383,VALID,67,VALID,0.589453,
2009-08-08, 00:48:04,VALID,1005.2,VALID,0,VALID,90.6158,VALID,0,VALID,24.3636,VALID,67,VALID,0.560938,
2009-08-08, 00:49:04,VALID,1005.18,VALID,0,VALID,90.6616,VALID,0,VALID,24.3812,VALID,103,VALID,0.462109,
2009-08-08, 00:50:04,VALID,1005.2,VALID,0,VALID,90.5777,VALID,0.100563,VALID,24.422,VALID,95,VALID,0.450781,
2009-08-08, 00:51:04,VALID,1005.15,VALID,0,VALID,90.4633,VALID,0.100563,VALID,24.4804,VALID,78,VALID,0.521484,
2009-08-08, 00:52:04,VALID,1005.15,VALID,0,VALID,90.2725,VALID,0.100563,VALID,24.5212,VALID,78,VALID,0.213672,
2009-08-08, 00:53:04,VALID,1005.15,VALID,0,VALID,90.1047,VALID,0.100563,VALID,24.5388,VALID,74,VALID,0.617578,
2009-08-08, 00:54:04,VALID,1005.1,VALID,0,VALID,89.8835,VALID,0,VALID,24.5972,VALID,72,VALID,0.344531,
2009-08-08, 00:55:04,VALID,1005.12,VALID,0,VALID,89.6012,VALID,0,VALID,24.6556,VALID,72,VALID,0.416016,
2009-08-08, 00:56:04,VALID,1005.1,VALID,0,VALID,89.3342,VALID,0,VALID,24.714,VALID,72,VALID,0.419141,
2009-08-08, 00:57:04,VALID,1005.13,VALID,0,VALID,89.0672,VALID,0.100563,VALID,24.7335,VALID,89,VALID,0.487109,
2009-08-08, 00:58:04,VALID,1005.12,VALID,0,VALID,88.907,VALID,0,VALID,24.7529,VALID,88,VALID,0.127734,
2009-08-08, 00:59:04,VALID,1005.16,VALID,0,VALID,88.8688,VALID,0,VALID,24.7548,VALID,88,VALID,0.187891,
2009-08-08, 01:00:04,VALID,1005.14,VALID,0,VALID,88.8154,VALID,0,VALID,24.7743,VALID,91,VALID,0.493359,
2009-08-08, 01:01:04,VALID,1005.15,VALID,0,VALID,88.7544,VALID,0.100563,VALID,24.7743,VALID,61,VALID,0.665625,
2009-08-08, 01:02:04,VALID,1005.14,VALID,0,VALID,88.7468,VALID,0,VALID,24.7743,VALID,85,VALID,0.515234,
2009-08-08, 01:03:04,VALID,1005.14,VALID,0,VALID,88.7697,VALID,0,VALID,24.7743,VALID,86,VALID,1.08555,
2009-08-08, 01:04:04,VALID,1005.19,VALID,0,VALID,88.762,VALID,0,VALID,24.7919,VALID,76,VALID,0.467578,
2009-08-08, 01:05:04,VALID,1005.16,VALID,0,VALID,88.7773,VALID,0,VALID,24.8113,VALID,54,VALID,0.636328,
2009-08-08, 01:06:04,VALID,1005.18,VALID,0,VALID,88.7468,VALID,0,VALID,24.8308,VALID,76,VALID,0.548828,
2009-08-08, 01:07:04,VALID,1005.18,VALID,0,VALID,88.6781,VALID,0.100563,VALID,24.8503,VALID,76,VALID,0.425391,
2009-08-08, 01:08:04,VALID,1005.18,VALID,0,VALID,88.6705,VALID,0,VALID,24.8697,VALID,89,VALID,0.525,
2009-08-08, 01:09:04,VALID,1005.19,VALID,0,VALID,88.6628,VALID,0,VALID,24.8892,VALID,69,VALID,0.859375,
2009-08-08, 01:10:04,VALID,1005.2,VALID,0,VALID,88.5866,VALID,0,VALID,24.93,VALID,55,VALID,0.360156,
2009-08-08, 01:11:04,VALID,1005.17,VALID,0,VALID,88.5408,VALID,0,VALID,24.8892,VALID,71,VALID,0.398828,
2009-08-08, 01:12:04,VALID,1005.15,VALID,0,VALID,88.4569,VALID,0,VALID,24.9087,VALID,71,VALID,1.22305,
2009-08-08, 01:13:04,VALID,1005.1,VALID,0,VALID,88.289,VALID,0,VALID,24.9671,VALID,105,VALID,0.413281,
2009-08-08, 01:14:04,VALID,1005.13,VALID,0,VALID,88.1899,VALID,0,VALID,24.9866,VALID,68,VALID,0.323828,
2009-08-08, 01:15:04,VALID,1005.09,VALID,0,VALID,88.167,VALID,0,VALID,24.9885,VALID,106,VALID,0.782422,
2009-08-08, 01:16:04,VALID,1005.08,VALID,0,VALID,88.1059,VALID,0,VALID,25.0079,VALID,94,VALID,0.510547,
2009-08-08, 01:17:04,VALID,1005.07,VALID,0,VALID,88.1365,VALID,0,VALID,25.0079,VALID,92,VALID,0.206641,
2009-08-08, 01:18:04,VALID,1005.07,VALID,0,VALID,88.1441,VALID,0,VALID,25.0079,VALID,98,VALID,0.424609,
2009-08-08, 01:19:04,VALID,1005.06,VALID,0,VALID,88.1593,VALID,0,VALID,24.9866,VALID,98,VALID,0.149219,
2009-08-08, 01:20:04,VALID,1005.05,VALID,0,VALID,88.2814,VALID,0,VALID,24.969,VALID,92,VALID,0.418359,
2009-08-08, 01:21:04,VALID,1005.02,VALID,0,VALID,88.3806,VALID,0,VALID,24.969,VALID,92,VALID,0.155469,
2009-08-08, 01:22:04,VALID,1005.02,VALID,0,VALID,88.4264,VALID,0.100563,VALID,24.9282,VALID,90,VALID,0.428125,
2009-08-08, 01:23:04,VALID,1004.97,VALID,0,VALID,88.5484,VALID,0.100563,VALID,24.9087,VALID,86,VALID,0.802734,
2009-08-08, 01:24:04,VALID,1005.01,VALID,0,VALID,88.6171,VALID,0,VALID,24.9087,VALID,92,VALID,0.901172,
2009-08-08, 01:25:04,VALID,1005.01,VALID,0,VALID,88.6171,VALID,0,VALID,24.9087,VALID,70,VALID,0.397266,
2009-08-08, 01:26:04,VALID,1004.99,VALID,0,VALID,88.6171,VALID,0,VALID,24.9106,VALID,72,VALID,0.410156,
2009-08-08, 01:27:04,VALID,1005,VALID,0,VALID,88.6628,VALID,0,VALID,24.9106,VALID,84,VALID,0.833594,
2009-08-08, 01:28:04,VALID,1005.02,VALID,0,VALID,88.6934,VALID,0,VALID,24.9106,VALID,90,VALID,0.693359,
2009-08-08, 01:29:04,VALID,1005.01,VALID,0,VALID,88.7391,VALID,0,VALID,24.8911,VALID,90,VALID,0.377344,
2009-08-08, 01:30:04,VALID,1005.01,VALID,0,VALID,88.8002,VALID,0,VALID,24.8503,VALID,90,VALID,0.185547,
2009-08-08, 01:31:04,VALID,1004.97,VALID,0,VALID,88.8917,VALID,0,VALID,24.8327,VALID,90,VALID,0.4,
2009-08-08, 01:32:04,VALID,1005,VALID,0,VALID,89.0214,VALID,0,VALID,24.7724,VALID,89,VALID,0.141406,
2009-08-08, 01:33:04,VALID,1004.97,VALID,0,VALID,89.2426,VALID,0,VALID,24.7937,VALID,44,VALID,0.497656,
2009-08-08, 01:34:04,VALID,1004.99,VALID,0,VALID,89.4715,VALID,0,VALID,24.714,VALID,31,VALID,0.555469,
2009-08-08, 01:35:04,VALID,1004.98,VALID,0,VALID,89.769,VALID,0,VALID,24.6769,VALID,25,VALID,0.444531,
2009-08-08, 01:36:04,VALID,1005.01,VALID,0,VALID,90.0894,VALID,0,VALID,24.6166,VALID,25,VALID,0.286719,
2009-08-08, 01:37:04,VALID,1004.99,VALID,0,VALID,90.3412,VALID,0,VALID,24.5972,VALID,12,VALID,0.290234,
2009-08-08, 01:38:04,VALID,1005.02,VALID,0,VALID,90.5243,VALID,0,VALID,24.599,VALID,12,VALID,0.0652344,
2009-08-08, 01:39:04,VALID,1005.05,VALID,0,VALID,90.6464,VALID,0,VALID,24.6204,VALID,28,VALID,0.548047,
2009-08-08, 01:40:04,VALID,1005.03,VALID,0,VALID,90.7379,VALID,0,VALID,24.5582,VALID,78,VALID,0.543359,
2009-08-08, 01:41:04,VALID,1005.02,VALID,0,VALID,90.9057,VALID,0,VALID,24.5388,VALID,101,VALID,0.633984,
2009-08-08, 01:42:05,VALID,1005,VALID,0,VALID,90.9897,VALID,0,VALID,24.5601,VALID,92,VALID,0.213672,
2009-08-08, 01:43:05,VALID,1005,VALID,0,VALID,91.1117,VALID,0,VALID,24.6204,VALID,93,VALID,0.751953,
2009-08-08, 01:44:05,VALID,1004.98,VALID,0,VALID,91.0049,VALID,0,VALID,24.6593,VALID,97,VALID,0.453125,
2009-08-08, 01:45:05,VALID,1004.99,VALID,0,VALID,90.776,VALID,0,VALID,24.6983,VALID,79,VALID,0.478125,
2009-08-08, 01:46:05,VALID,1004.97,VALID,0,VALID,90.5777,VALID,0,VALID,24.7159,VALID,79,VALID,0.755078,
2009-08-08, 01:47:05,VALID,1004.95,VALID,0,VALID,90.4633,VALID,0,VALID,24.7159,VALID,92,VALID,0.441797,
2009-08-08, 01:48:05,VALID,1004.94,VALID,0,VALID,90.3793,VALID,0,VALID,24.7177,VALID,78,VALID,0.782812,
2009-08-08, 01:49:05,VALID,1004.92,VALID,0,VALID,90.4404,VALID,0,VALID,24.7372,VALID,74,VALID,1.1957,
2009-08-08, 01:50:05,VALID,1004.92,VALID,0,VALID,90.3259,VALID,0,VALID,24.7567,VALID,92,VALID,0.175781,
2009-08-08, 01:51:05,VALID,1004.92,VALID,0,VALID,90.3488,VALID,0,VALID,24.7567,VALID,91,VALID,0.635938,
2009-08-08, 01:52:05,VALID,1004.9,VALID,0,VALID,90.3259,VALID,0,VALID,24.7567,VALID,92,VALID,0.149219,
2009-08-08, 01:53:05,VALID,1004.91,VALID,0,VALID,90.3565,VALID,0,VALID,24.7567,VALID,73,VALID,0.285547,
2009-08-08, 01:54:05,VALID,1004.91,VALID,0,VALID,90.3412,VALID,0,VALID,24.7567,VALID,63,VALID,0.711328,
2009-08-08, 01:55:05,VALID,1004.91,VALID,0,VALID,90.3412,VALID,0,VALID,24.7956,VALID,85,VALID,0.684375,
2009-08-08, 01:56:05,VALID,1004.93,VALID,0,VALID,90.2878,VALID,0,VALID,24.7548,VALID,94,VALID,0.581641,
2009-08-08, 01:57:05,VALID,1004.92,VALID,0,VALID,90.2954,VALID,0,VALID,24.7937,VALID,105,VALID,0.471094,
2009-08-08, 01:58:05,VALID,1004.92,VALID,0,VALID,90.2344,VALID,0,VALID,24.8132,VALID,97,VALID,0.998047,
2009-08-08, 01:59:05,VALID,1004.88,VALID,0,VALID,90.1963,VALID,0,VALID,24.8327,VALID,77,VALID,1.12891,
2009-08-08, 02:00:05,VALID,1004.86,VALID,0,VALID,90.1047,VALID,0,VALID,24.8522,VALID,88,VALID,0.528516,
2009-08-08, 02:01:05,VALID,1004.85,VALID,0,VALID,89.9826,VALID,0,VALID,24.8716,VALID,93,VALID,0.543359,
2009-08-08, 02:02:05,VALID,1004.81,VALID,0,VALID,89.8835,VALID,0,VALID,24.8522,VALID,99,VALID,0.579687,
2009-08-08, 02:03:05,VALID,1004.81,VALID,0,VALID,89.8148,VALID,0,VALID,24.8522,VALID,98,VALID,0.520312,
2009-08-08, 02:04:05,VALID,1004.77,VALID,0,VALID,89.8148,VALID,0,VALID,24.8522,VALID,87,VALID,0.791406,
2009-08-08, 02:05:05,VALID,1004.72,VALID,0,VALID,89.8758,VALID,0,VALID,24.8327,VALID,91,VALID,0.939453,
2009-08-08, 02:06:05,VALID,1004.74,VALID,0,VALID,89.8835,VALID,0,VALID,24.8327,VALID,102,VALID,1.03008,
2009-08-08, 02:07:05,VALID,1004.71,VALID,0,VALID,89.8682,VALID,0,VALID,24.8132,VALID,99,VALID,0.719531,
2009-08-08, 02:08:05,VALID,1004.69,VALID,0,VALID,89.8911,VALID,0,VALID,24.8132,VALID,85,VALID,0.608984,
2009-08-08, 02:09:05,VALID,1004.65,VALID,0,VALID,89.9369,VALID,0,VALID,24.8132,VALID,107,VALID,0.830469,
2009-08-08, 02:10:05,VALID,1004.65,VALID,0,VALID,89.975,VALID,0,VALID,24.8132,VALID,95,VALID,1.02031,
2009-08-08, 02:11:05,VALID,1004.62,VALID,0,VALID,90.0055,VALID,0,VALID,24.8132,VALID,78,VALID,0.536719,
2009-08-08, 02:12:05,VALID,1004.59,VALID,0,VALID,90.0589,VALID,0,VALID,24.8327,VALID,73,VALID,1.08711,
2009-08-08, 02:13:05,VALID,1004.56,VALID,0,VALID,90.0055,VALID,0.100563,VALID,24.8503,VALID,99,VALID,0.798437,
2009-08-08, 02:14:05,VALID,1004.56,VALID,0,VALID,90.0055,VALID,0.100563,VALID,24.8503,VALID,103,VALID,0.402734,
2009-08-08, 02:15:05,VALID,1004.49,VALID,0,VALID,90.0208,VALID,0.100563,VALID,24.8503,VALID,81,VALID,0.95,
2009-08-08, 02:16:05,VALID,1004.49,VALID,0,VALID,90.0132,VALID,0.100563,VALID,24.8697,VALID,92,VALID,0.580859,
2009-08-08, 02:17:05,VALID,1004.48,VALID,0,VALID,89.975,VALID,0,VALID,24.8697,VALID,96,VALID,0.732422,
2009-08-08, 02:18:05,VALID,1004.46,VALID,0,VALID,90.0894,VALID,0.100563,VALID,24.9087,VALID,112,VALID,1.25859,
2009-08-08, 02:19:05,VALID,1004.48,VALID,0,VALID,89.9598,VALID,0.100563,VALID,24.9476,VALID,96,VALID,1.34336,
2009-08-08, 02:20:05,VALID,1004.44,VALID,0,VALID,89.914,VALID,0.100563,VALID,25.0274,VALID,91,VALID,1.28242,
2009-08-08, 02:21:05,VALID,1004.45,VALID,0,VALID,89.7004,VALID,0,VALID,25.045,VALID,95,VALID,1.10352,
2009-08-08, 02:22:05,VALID,1004.39,VALID,0,VALID,89.6622,VALID,0.100563,VALID,25.0839,VALID,97,VALID,1.02695,
2009-08-08, 02:23:05,VALID,1004.39,VALID,0,VALID,89.5402,VALID,0,VALID,25.1442,VALID,100,VALID,1.26719,
2009-08-08, 02:24:05,VALID,1004.36,VALID,0,VALID,89.3494,VALID,0.100563,VALID,25.1423,VALID,99,VALID,0.717969,
2009-08-08, 02:25:05,VALID,1004.37,VALID,0,VALID,89.296,VALID,0.100563,VALID,25.1618,VALID,66,VALID,0.903125,
2009-08-08, 02:26:05,VALID,1004.37,VALID,0,VALID,89.2198,VALID,0,VALID,25.1832,VALID,74,VALID,0.858203,
2009-08-08, 02:27:05,VALID,1004.37,VALID,0,VALID,89.1816,VALID,0.100563,VALID,25.1618,VALID,64,VALID,0.737891,
2009-08-08, 02:28:05,VALID,1004.35,VALID,0,VALID,89.1969,VALID,0,VALID,25.1423,VALID,93,VALID,1.04258,
2009-08-08, 02:29:05,VALID,1004.35,VALID,0,VALID,89.2121,VALID,0,VALID,25.1423,VALID,87,VALID,0.885938,
2009-08-08, 02:30:05,VALID,1004.36,VALID,0,VALID,89.2732,VALID,0,VALID,25.1229,VALID,113,VALID,0.635938,
2009-08-08, 02:31:05,VALID,1004.33,VALID,0,VALID,89.3494,VALID,0.100563,VALID,25.1229,VALID,101,VALID,0.84375,
2009-08-08, 02:32:05,VALID,1004.34,VALID,0,VALID,89.4181,VALID,0,VALID,25.1034,VALID,107,VALID,0.819531,
2009-08-08, 02:33:05,VALID,1004.32,VALID,0,VALID,89.4334,VALID,0,VALID,25.0644,VALID,99,VALID,0.968359,
2009-08-08, 02:34:05,VALID,1004.31,VALID,0,VALID,89.4486,VALID,0,VALID,25.0644,VALID,119,VALID,0.673047,
2009-08-08, 02:35:05,VALID,1004.25,VALID,0,VALID,89.4715,VALID,0.100563,VALID,25.045,VALID,97,VALID,0.264844,
2009-08-08, 02:36:05,VALID,1004.26,VALID,0,VALID,89.296,VALID,0.100563,VALID,25.0255,VALID,91,VALID,1.3707,
2009-08-08, 02:37:05,VALID,1004.22,VALID,0,VALID,89.1053,VALID,0,VALID,25.0858,VALID,102,VALID,1.07187,
2009-08-08, 02:38:05,VALID,1004.16,VALID,0,VALID,88.8841,VALID,0.100563,VALID,25.0644,VALID,120,VALID,1.18828,
2009-08-08, 02:39:05,VALID,1004.14,VALID,0,VALID,88.8536,VALID,0,VALID,25.0858,VALID,126,VALID,0.363281,
2009-08-08, 02:40:05,VALID,1004.1,VALID,0,VALID,88.7544,VALID,0,VALID,25.045,VALID,115,VALID,0.9125,
2009-08-08, 02:41:05,VALID,1004.1,VALID,0,VALID,88.7239,VALID,0,VALID,25.0255,VALID,45,VALID,0.558984,
2009-08-08, 02:42:05,VALID,1004.09,VALID,0,VALID,88.4798,VALID,0,VALID,25.045,VALID,78,VALID,1.61719,
2009-08-08, 02:43:05,VALID,1004.08,VALID,0,VALID,88.2433,VALID,0,VALID,25.0644,VALID,102,VALID,1.20313,
2009-08-08, 02:44:05,VALID,1004.02,VALID,0,VALID,88.1517,VALID,0,VALID,25.1034,VALID,85,VALID,0.723047,
2009-08-08, 02:45:05,VALID,1004.03,VALID,0,VALID,87.8542,VALID,0,VALID,25.1442,VALID,96,VALID,0.878906,
2009-08-08, 02:46:05,VALID,1003.98,VALID,0,VALID,87.6635,VALID,0.100563,VALID,25.1618,VALID,64,VALID,1.42461,
2009-08-08, 02:47:05,VALID,1003.97,VALID,0,VALID,87.3888,VALID,0,VALID,25.1813,VALID,99,VALID,1.52344,
2009-08-08, 02:48:05,VALID,1004,VALID,0,VALID,87.0913,VALID,0,VALID,25.2592,VALID,80,VALID,1.15273,
2009-08-08, 02:49:05,VALID,1003.97,VALID,0,VALID,87.0455,VALID,0.100563,VALID,25.2806,VALID,66,VALID,1.03945,
2009-08-08, 02:50:05,VALID,1003.98,VALID,0,VALID,86.9769,VALID,0.100563,VALID,25.2592,VALID,94,VALID,0.659375,
2009-08-08, 02:51:05,VALID,1003.97,VALID,0,VALID,86.9082,VALID,0.100563,VALID,25.2592,VALID,112,VALID,0.707031,
2009-08-08, 02:52:05,VALID,1003.97,VALID,0,VALID,86.8624,VALID,0,VALID,25.2611,VALID,112,VALID,0.941797,
2009-08-08, 02:53:05,VALID,1004,VALID,0,VALID,86.8472,VALID,0.100563,VALID,25.2397,VALID,85,VALID,0.505469,
2009-08-08, 02:54:05,VALID,1003.99,VALID,0,VALID,86.809,VALID,0.100563,VALID,25.2592,VALID,107,VALID,0.600781,
2009-08-08, 02:55:05,VALID,1004.01,VALID,0,VALID,86.8014,VALID,0.100563,VALID,25.2592,VALID,96,VALID,0.442578,
2009-08-08, 02:56:05,VALID,1003.99,VALID,0,VALID,86.5954,VALID,0.100563,VALID,25.2592,VALID,125,VALID,1.32383,
2009-08-08, 02:57:05,VALID,1003.99,VALID,0,VALID,86.4962,VALID,0,VALID,25.2786,VALID,96,VALID,0.590234,
2009-08-08, 02:58:05,VALID,1003.98,VALID,0,VALID,86.3208,VALID,0,VALID,25.2806,VALID,96,VALID,0.530859,
2009-08-08, 02:59:05,VALID,1003.94,VALID,0,VALID,86.4123,VALID,0,VALID,25.2981,VALID,110,VALID,0.263281,
2009-08-08, 03:00:05,VALID,1003.96,VALID,0,VALID,86.4352,VALID,0.100563,VALID,25.2786,VALID,102,VALID,0,
2009-08-08, 03:01:05,VALID,1003.94,VALID,0,VALID,86.4505,VALID,0.100563,VALID,25.2397,VALID,86,VALID,0.430078,
2009-08-08, 03:02:05,VALID,1003.92,VALID,0,VALID,86.3208,VALID,0,VALID,25.3176,VALID,10,VALID,0.894531,
2009-08-08, 03:03:05,VALID,1003.9,VALID,0,VALID,86.214,VALID,0.100563,VALID,25.337,VALID,81,VALID,1.13633,
2009-08-08, 03:04:05,VALID,1003.9,VALID,0,VALID,86.0843,VALID,0,VALID,25.337,VALID,84,VALID,0.395703,
2009-08-08, 03:05:05,VALID,1003.9,VALID,0,VALID,86.1224,VALID,0.100563,VALID,25.3176,VALID,67,VALID,0.586719,
2009-08-08, 03:06:05,VALID,1003.88,VALID,0,VALID,86.3666,VALID,0.100563,VALID,25.2786,VALID,78,VALID,0.637891,
2009-08-08, 03:07:05,VALID,1003.88,VALID,0,VALID,86.5268,VALID,0,VALID,25.2202,VALID,80,VALID,1.01094,
2009-08-08, 03:08:05,VALID,1003.86,VALID,0,VALID,86.687,VALID,0,VALID,25.2007,VALID,84,VALID,1.15117,
2009-08-08, 03:09:05,VALID,1003.86,VALID,0,VALID,86.7633,VALID,0.100563,VALID,25.2007,VALID,69,VALID,0.394531,
2009-08-08, 03:10:05,VALID,1003.83,VALID,0,VALID,86.8319,VALID,0.100563,VALID,25.1618,VALID,68,VALID,0.803516,
2009-08-08, 03:11:05,VALID,1003.79,VALID,0,VALID,86.9082,VALID,0,VALID,25.1618,VALID,59,VALID,0.588672,
2009-08-08, 03:12:05,VALID,1003.79,VALID,0,VALID,86.9769,VALID,0.100563,VALID,25.1229,VALID,74,VALID,0.167578,
2009-08-08, 03:13:05,VALID,1003.75,VALID,0,VALID,87.0608,VALID,0,VALID,25.1053,VALID,74,VALID,0.330859,
2009-08-08, 03:14:05,VALID,1003.73,VALID,0,VALID,87.1981,VALID,0,VALID,25.0858,VALID,79,VALID,0.318359,
2009-08-08, 03:15:05,VALID,1003.72,VALID,0,VALID,87.3049,VALID,0,VALID,25.1072,VALID,66,VALID,0.450391,
2009-08-08, 03:16:05,VALID,1003.72,VALID,0,VALID,87.3736,VALID,0,VALID,25.0663,VALID,99,VALID,0.882813,
2009-08-08, 03:17:05,VALID,1003.71,VALID,0,VALID,87.3659,VALID,0,VALID,25.0877,VALID,100,VALID,0.887109,
2009-08-08, 03:18:05,VALID,1003.69,VALID,0,VALID,87.3049,VALID,0,VALID,25.0858,VALID,107,VALID,0.936719,
2009-08-08, 03:19:05,VALID,1003.7,VALID,0,VALID,87.16,VALID,0,VALID,25.1461,VALID,94,VALID,0.941797,
2009-08-08, 03:20:05,VALID,1003.71,VALID,0,VALID,87.076,VALID,0,VALID,25.1442,VALID,99,VALID,1.05508,
2009-08-08, 03:21:05,VALID,1003.68,VALID,0,VALID,86.5496,VALID,0,VALID,25.2435,VALID,102,VALID,1.475,
2009-08-08, 03:22:05,VALID,1003.69,VALID,0,VALID,86.2064,VALID,0,VALID,25.2806,VALID,115,VALID,1.31875,
2009-08-08, 03:23:05,VALID,1003.71,VALID,0,VALID,85.8249,VALID,0,VALID,25.3584,VALID,118,VALID,0.971484,
2009-08-08, 03:24:05,VALID,1003.69,VALID,0,VALID,85.5808,VALID,0,VALID,25.4169,VALID,97,VALID,0.906641,
2009-08-08, 03:25:05,VALID,1003.7,VALID,0,VALID,85.4282,VALID,0,VALID,25.4169,VALID,103,VALID,1.52266,
2009-08-08, 03:26:05,VALID,1003.71,VALID,0,VALID,85.3824,VALID,0,VALID,25.4967,VALID,101,VALID,1.38516,
2009-08-08, 03:27:05,VALID,1003.66,VALID,0,VALID,85.2756,VALID,0,VALID,25.5142,VALID,81,VALID,0.921484,
2009-08-08, 03:28:05,VALID,1003.67,VALID,0,VALID,85.3824,VALID,0.100563,VALID,25.4928,VALID,83,VALID,1.18047,
2009-08-08, 03:29:05,VALID,1003.67,VALID,0,VALID,85.4663,VALID,0,VALID,25.5318,VALID,131,VALID,1.23203,
2009-08-08, 03:30:05,VALID,1003.63,VALID,0,VALID,85.4129,VALID,0.100563,VALID,25.5727,VALID,101,VALID,2.0918,
2009-08-08, 03:31:05,VALID,1003.67,VALID,0,VALID,85.3595,VALID,0,VALID,25.6097,VALID,118,VALID,1.84648,
2009-08-08, 03:32:05,VALID,1003.63,VALID,0,VALID,85.1154,VALID,0,VALID,25.6292,VALID,96,VALID,1.50312,
2009-08-08, 03:33:05,VALID,1003.64,VALID,0,VALID,85.0086,VALID,0,VALID,25.6292,VALID,115,VALID,0.815625,
2009-08-08, 03:34:05,VALID,1003.67,VALID,0,VALID,85.2604,VALID,0,VALID,25.5707,VALID,122,VALID,1.4457,
2009-08-08, 03:35:05,VALID,1003.6,VALID,0,VALID,85.535,VALID,0,VALID,25.6097,VALID,97,VALID,1.51133,
2009-08-08, 03:36:05,VALID,1003.63,VALID,0,VALID,85.5503,VALID,0,VALID,25.6681,VALID,129,VALID,1.34922,
2009-08-08, 03:37:05,VALID,1003.61,VALID,0,VALID,85.4892,VALID,0,VALID,25.6876,VALID,105,VALID,1.0707,
2009-08-08, 03:38:05,VALID,1003.63,VALID,0,VALID,85.4587,VALID,0,VALID,25.748,VALID,113,VALID,1.96914,
2009-08-08, 03:39:05,VALID,1003.62,VALID,0,VALID,85.2833,VALID,0,VALID,25.748,VALID,93,VALID,0.945313,
2009-08-08, 03:40:05,VALID,1003.63,VALID,0,VALID,85.0849,VALID,0.100563,VALID,25.7655,VALID,100,VALID,0.942969,
2009-08-08, 03:41:05,VALID,1003.62,VALID,0,VALID,83.5134,VALID,0,VALID,25.8064,VALID,125,VALID,2.98828,
2009-08-08, 03:42:05,VALID,1003.68,VALID,0,VALID,82.842,VALID,0,VALID,25.9232,VALID,98,VALID,2.71484,
2009-08-08, 03:43:05,VALID,1003.71,VALID,0,VALID,82.3461,VALID,0,VALID,25.9602,VALID,113,VALID,1.39805,